Location: Unspecified
(0.0000°N, 0.0000°E)
Time: 13:23:36
(UTC+00:00)

deb Explorer IX - All Passes

Search period start: 01 August 2021 00:00
Search period end: 11 August 2021 00:00
Orbit: 543 x 1093 km, 38.8° (Epoch: 31 July)

Date Brightness Start Highest point End Pass type
(mag) Time Alt. Az. Time Alt. Az. Time Alt. Az.
01 Aug - 08:26:38 10° SSW 08:30:24 34° SE 08:34:08 10° ENE daylight
01 Aug - 10:14:02 10° W 10:16:58 19° NW 10:20:01 10° N daylight
01 Aug - 19:18:59 10° NNW 19:24:29 24° NE 19:30:09 10° E visible
01 Aug - 21:04:38 10° NW 21:11:52 74° SW 21:19:00 10° SE visible
01 Aug - 22:55:20 10° WSW 22:59:19 15° SW 23:03:10 10° S night (unlit)
02 Aug - 08:02:35 10° SSW 08:06:24 34° SE 08:10:07 10° ENE daylight
02 Aug - 09:50:04 10° W 09:52:57 19° NW 09:55:55 10° N daylight
02 Aug - 18:54:50 10° N 19:00:14 24° NE 19:05:51 10° E visible
02 Aug - 20:40:25 10° NW 20:47:34 75° SW 20:54:47 10° SE visible
02 Aug - 22:30:59 10° WSW 22:35:04 16° SW 22:39:05 10° S night (unlit)
03 Aug - 07:38:31 10° SSW 07:42:23 34° SE 07:46:07 10° ENE daylight
03 Aug - 09:26:04 10° W 09:28:56 18° NW 09:31:50 10° N daylight
03 Aug - 18:30:41 10° N 18:35:59 24° NE 18:41:31 10° E visible
03 Aug - 20:16:11 10° NW 20:23:17 75° SW 20:30:32 10° SE visible
03 Aug - 22:06:38 10° WSW 22:10:49 16° SW 22:14:57 10° S visible
04 Aug - 07:14:25 10° SSW 07:18:23 35° SE 07:22:07 10° ENE daylight
04 Aug - 09:02:02 10° W 09:04:54 18° NW 09:07:46 10° N daylight
04 Aug - 18:06:34 10° N 18:11:42 23° NE 18:17:09 10° E daylight
04 Aug - 19:51:59 10° NW 19:58:59 75° SW 20:06:16 10° SE visible
04 Aug - 21:42:19 10° WSW 21:46:33 16° SW 21:50:46 10° S visible
05 Aug - 06:50:16 10° SSW 06:54:21 35° SE 06:58:08 10° ENE daylight
05 Aug - 08:37:57 10° W 08:40:51 18° NW 08:43:44 10° N daylight
05 Aug - 17:42:28 10° N 17:47:27 22° NE 17:52:46 10° E daylight
05 Aug - 19:27:47 10° NW 19:34:40 76° SW 19:41:58 10° SE visible
05 Aug - 21:18:01 10° WSW 21:22:16 16° SW 21:26:32 10° S visible
06 Aug - 06:26:05 10° SSW 06:30:18 36° SE 06:34:08 10° ENE daylight
06 Aug - 08:13:51 10° W 08:16:49 19° NW 08:19:42 10° N daylight
06 Aug - 17:18:24 10° N 17:23:12 22° NE 17:28:22 10° E daylight
06 Aug - 19:03:35 10° NW 19:10:21 76° SW 19:17:38 10° SE visible
06 Aug - 20:53:45 10° WSW 20:57:59 16° SW 21:02:16 10° S visible
07 Aug - 06:01:52 10° SSW 06:06:14 37° SE 06:10:09 10° ENE daylight
07 Aug - 07:49:42 10° W 07:52:45 19° NW 07:55:42 10° N daylight
07 Aug - 16:54:20 10° N 16:58:57 21° NE 17:03:56 10° E daylight
07 Aug - 18:39:25 10° NW 18:46:02 76° SW 18:53:17 10° SE visible
07 Aug - 20:29:29 10° WSW 20:33:41 16° SW 20:37:59 10° S visible
08 Aug - 05:37:37 10° SSW 05:42:09 37° SE 05:46:10 10° ENE visible
08 Aug - 07:25:30 10° W 07:28:41 19° NW 07:31:42 10° N daylight
08 Aug - 16:30:17 10° N 16:34:42 20° NE 16:39:30 10° E daylight
08 Aug - 18:15:16 10° NW 18:21:44 76° SW 18:28:55 10° SE visible
08 Aug - 20:05:15 10° WSW 20:09:23 16° SW 20:13:39 10° S visible
09 Aug - 05:13:21 10° SSW 05:18:03 38° SE 05:22:10 10° ENE visible
09 Aug - 07:01:17 10° W 07:04:36 20° NW 07:07:42 10° N daylight
09 Aug - 16:06:15 10° N 16:10:27 20° NE 16:15:02 10° E daylight
09 Aug - 17:51:06 10° NW 17:57:25 76° SW 18:04:32 10° SE daylight
09 Aug - 19:41:02 10° WSW 19:45:05 16° SW 19:49:17 10° S visible
10 Aug - 04:49:02 10° SSW 04:53:56 39° SE 04:58:10 10° ENE visible
10 Aug - 06:37:01 10° W 06:40:29 21° NW 06:43:43 10° N daylight
10 Aug - 15:42:14 10° N 15:46:12 19° NE 15:50:33 10° E daylight
10 Aug - 17:26:59 10° NW 17:33:07 76° SW 17:40:07 10° SE daylight
10 Aug - 19:16:51 10° WSW 19:20:47 16° SW 19:24:53 10° S visible
